Location: Unspecified
(49.8670°N, 0.0000°E)
Time: 20:10:53
(UTC+00:00)

Vanguard 1 - Pass Details

Date: 23 June 2019
Orbit: 653 x 3830 km, 34.3° (Epoch: 20 July)

Event Time Altitude Azimuth Distance (km) Brightness Sun altitude
Rises 23:22:10 0° 191° (S) 7,955 - -16.2°
Reaches altitude 10° 23:31:04 10° 175° (S) 6,744 - -16.4°
Exits shadow 23:38:23 16° 155° (SSE) 5,904 13.4 -16.5°
Maximum altitude 23:42:04 17° 143° (SE) 5,600 13.4 -16.6°
Drops below altitude 10° 23:51:05 10° 111° (ESE) 5,447 13.6 -16.7°
Sets 23:56:45 0° 93° (E) 5,882 14.0 -16.7°
